Regional Weather Roundup
Issued by NWS

Home | Current Version | Previous Version | Graphics & Text | Print | Product List | Glossary On
Versions: 1 2 3 4 5 6 7 8 9 10 11 12 13 14 15 16 17 18 19 20 21 22 23 24 25 26 27 28 29 30 31 32 33 34 35 36 37 38 39 40 41 42 43 44 45 46 47 48 49 50
989
ASUS43 KFSD 240710
RWRSD

WEATHER ROUNDUP FOR SOUTH DAKOTA
NATIONAL WEATHER SERVICE SIOUX FALLS SD
200 AM CDT FRI MAR 24 2017

NOTE: "FAIR" INDICATES FEW OR NO CLOUDS BELOW 12,000 FEET WITH NO
SIGNIFICANT WEATHER AND/OR OBSTRUCTIONS TO VISIBILITY.


SDZ001>005-009-010-012>017-240800-
NORTHWEST AND NORTH CENTRAL SOUTH DAKOTA

CITY           SKY/WX    TMP DP  RH WIND       PRES   REMARKS
BUFFALO          N/A     37  35  92 W10       29.89R
FAITH            N/A     39  38  96 NW9       29.95S
MOBRIDGE       CLOUDY    41  35  79 N7        29.89R
$$

SDZ012>016-024>037-041>051-057-063-072>074-240800-
SOUTHWEST AND SOUTH CENTRAL SOUTH DAKOTA

CITY           SKY/WX    TMP DP  RH WIND       PRES   REMARKS
RAPID CTY ARPT CLOUDY    41  37  86 N13       29.96R
PIERRE         MOCLDY    40  36  86 NW8       29.87R
CUSTER         CLOUDY    36  30  79 N13G18    29.94R
ELLSWORTH AFB  CLOUDY    42  39  89 N10       29.96R
PHILIP         CLOUDY    41  38  89 NW9       29.92R
PINE RIDGE     CLOUDY    44  39  82 N8        29.92R
SPEARFISH      CLOUDY    39  39 100 CALM      29.99R
WINNER         LGT RAIN  43  41  93 N9        29.86R
$$

SDZ004>011-016>023-039-040-240800-
NORTHEAST SOUTH DAKOTA

CITY           SKY/WX    TMP DP  RH WIND       PRES   REMARKS
ABERDEEN       CLOUDY    36  33  89 N8        29.89R
WATERTOWN      FOG       34  33  96 NE6       29.83R VSB 3/4 WCI  29
BROOKINGS      CLOUDY    36  36 100 N7        29.81R FOG
SISSETON         N/A     34  34 100 NE8       29.87R WCI  27
$$

SDZ017-020-022-023-036>040-048>070-240800-
SOUTHEAST SOUTH DAKOTA

CITY           SKY/WX    TMP DP  RH WIND       PRES   REMARKS
SIOUX FALLS    LGT RAIN  43  41  93 N6        29.78R
HURON          CLOUDY    38  38 100 N12       29.84R
CHAMBERLAIN    CLOUDY    42  38  87 NW9       29.86S
MITCHELL       CLOUDY    42  41  96 N12       29.84R
YANKTON        MOCLDY    46  45  93 N3        29.77R
$$

ABBREVIATIONS USED IN REMARKS
   TC - TEMPERATURE IN CELSIUS
  WCI - WIND CHILL INDEX
   HX - HEAT INDEX
  VSB - VISIBILITY





USA.gov is the U.S. government's official web portal to all federal, state and local government web resources and services.